Tacoma, WA

9:13 PM PST on January 23, 2017 (GMT -0800)
Gray Army Air Field

Weather History for KGRF - April, 2013

Change the Weather History Date:

Sunday, April 21, 2013

  Actual Average Record
Temperature  
Mean Temperature 48 °F -  
Max Temperature 56 °F 59 °F 76 °F (2009)
Min Temperature 39 °F 38 °F 29 °F (2008)
Degree Days  
Heating Degree Days 18    
Moisture  
Dew Point 41 °F    
Average Humidity 86    
Maximum Humidity 100    
Minimum Humidity 52    
Precipitation  
Precipitation 0.04 in - - ()
Sea Level Pressure  
Sea Level Pressure 30.28 in    
Wind  
Wind Speed 7 mph (SSE)    
Max Wind Speed 13 mph    
Max Gust Speed 23 mph    
Visibility 8 miles    
Events Fog , Rain    
Averages and records for this station are not official NWS values.
T = Trace of Precipitation, MM = Missing Value Source: NWS Daily Summary

Daily Weather History Graph

Daily Weather History Graph

Search for Another Location

Airport or City:

Trip Planner

Search our weather history database for the weather conditions in past years. The results will help you decide how hot, cold, wet, or windy it might be!

Date:

Astronomy

Apr. 21, 2013 Rise Set
Actual Time 6:10 AM PDT 8:07 PM PDT
Civil Twilight 5:38 AM PDT 8:40 PM PDT
Nautical Twilight 4:58 AM PDT 9:21 PM PDT
Astronomical Twilight 4:13 AM PDT 10:05 PM PDT
Moon 3:43 PM PDT (4/21) 3:53 AM PDT (4/21)
Length of Visible Light 15h 02m
Length of Day
13h 57m
Waxing Gibbous, 81% of the Moon is Illuminated
Apr 21
Waxing Gibbous
Apr 25
Full
May 2
Last Quarter
May 9
New
May 17
First Quarter

Hourly Weather History & Observations

Time (PDT) Temp. Windchill Dew Point Humidity Pressure Visibility Wind Dir Wind Speed Gust Speed Precip Events Conditions
12:13 AM 46.4 °F 42.9 °F 42.8 °F 87% 30.28 in 10.0 mi SSE 6.9 mph - N/A   Scattered Clouds
12:58 AM 43.5 °F 38.9 °F 41.2 °F 91% 30.30 in 10.0 mi SE 8.1 mph - N/A   Mostly Cloudy
1:58 AM 43.5 °F 38.9 °F 41.4 °F 92% 30.29 in 10.0 mi SE 8.1 mph - N/A   Overcast
2:58 AM 44.2 °F 39.7 °F 41.5 °F 90% 30.29 in 10.0 mi SE 8.1 mph - N/A   Overcast
3:23 AM 42.8 °F 38.0 °F 41.0 °F 93% 30.26 in 10.0 mi SE 8.1 mph - N/A   Overcast
3:28 AM 42.8 °F 38.6 °F 41.0 °F 93% 30.26 in 10.0 mi SSE 6.9 mph - N/A   Mostly Cloudy
3:33 AM 42.8 °F 38.6 °F 41.0 °F 93% 30.26 in 10.0 mi SE 6.9 mph - N/A   Mostly Cloudy
3:53 AM 42.8 °F 38.6 °F 41.0 °F 93% 30.26 in 10.0 mi ESE 6.9 mph - N/A   Mostly Cloudy
3:58 AM 42.8 °F 39.3 °F 41.0 °F 93% 30.28 in 10.0 mi SE 5.8 mph - N/A   Overcast
4:38 AM 42.8 °F 39.3 °F 41.0 °F 93% 30.26 in 10.0 mi SSE 5.8 mph - N/A   Mostly Cloudy
4:53 AM 42.8 °F 41.1 °F 41.0 °F 93% 30.26 in 10.0 mi South 3.5 mph - N/A   Mostly Cloudy
4:58 AM 42.6 °F 39.9 °F 40.5 °F 92% 30.28 in 10.0 mi SSE 4.6 mph - N/A   Mostly Cloudy
5:28 AM 42.8 °F 39.3 °F 41.0 °F 93% 30.25 in 10.0 mi SE 5.8 mph - N/A   Overcast
5:48 AM 41.0 °F 37.1 °F 41.0 °F 100% 30.25 in 10.0 mi SE 5.8 mph - N/A   Overcast
5:58 AM 41.9 °F 38.2 °F 40.6 °F 95% 30.27 in 10.0 mi SE 5.8 mph - N/A   Mostly Cloudy
6:03 AM 41.0 °F 37.1 °F 39.2 °F 93% 30.25 in 10.0 mi SE 5.8 mph - N/A   Mostly Cloudy
6:13 AM 41.0 °F 36.4 °F 39.2 °F 93% 30.25 in 10.0 mi SE 6.9 mph - N/A   Mostly Cloudy
6:58 AM 40.8 °F 36.2 °F 40.3 °F 98% 30.27 in 10.0 mi SSE 6.9 mph - N/A   Partly Cloudy
7:23 AM 42.8 °F 38.0 °F 42.8 °F 100% 30.25 in 10.0 mi SSE 8.1 mph - N/A   Mostly Cloudy
7:48 AM 44.6 °F 39.2 °F 41.0 °F 87% 30.25 in 10.0 mi SSE 10.4 mph - N/A   Scattered Clouds
7:58 AM 45.3 °F 40.1 °F 41.4 °F 86% 30.27 in 10.0 mi South 10.4 mph - N/A   Scattered Clouds
8:58 AM 46.8 °F - 40.1 °F 78% 30.26 in 10.0 mi South 9.2 mph - N/A   Partly Cloudy
9:43 AM 48.2 °F - 39.2 °F 71% 30.24 in 10.0 mi SSW 12.7 mph - N/A   Overcast
9:58 AM 48.6 °F - 39.9 °F 72% 30.25 in 10.0 mi South 10.4 mph - N/A   Overcast
10:58 AM 49.6 °F - 41.5 °F 74% 30.26 in 10.0 mi South 11.5 mph - N/A   Overcast
11:03 AM 50.0 °F - 41.0 °F 71% 30.24 in 10.0 mi South 9.2 mph - N/A   Overcast
11:08 AM 50.0 °F - 41.0 °F 71% 30.24 in 10.0 mi SSW 9.2 mph - N/A   Overcast
11:51 AM 48.2 °F - 42.8 °F 82% 30.24 in 10.0 mi SW 10.4 mph - N/A   Light Drizzle
11:58 AM 47.8 °F - 43.0 °F 83% 30.26 in 10.0 mi SW 8.1 mph - 0.00 in   Light Drizzle
12:07 PM 48.2 °F - 44.6 °F 87% 30.24 in 10.0 mi South 6.9 mph - N/A   Overcast
12:12 PM 48.2 °F - 42.8 °F 82% 30.24 in 10.0 mi South 6.9 mph - N/A   Overcast
12:58 PM 51.4 °F - 39.9 °F 65% 30.26 in 10.0 mi SSW 6.9 mph - 0.00 in   Overcast
1:58 PM 56.1 °F - 38.8 °F 52% 30.25 in 10.0 mi SW 9.2 mph 23.0 mph N/A   Mostly Cloudy
2:58 PM 54.0 °F - 37.4 °F 54% 30.25 in 10.0 mi WSW 6.9 mph - N/A   Overcast
3:55 PM 53.6 °F - 42.8 °F 67% 30.24 in 10.0 mi NW 11.5 mph - N/A   Light Drizzle
3:58 PM 52.9 °F - 42.8 °F 69% 30.26 in 10.0 mi NW 9.2 mph - 0.00 in   Light Drizzle
4:11 PM 51.8 °F - 42.8 °F 71% 30.24 in 10.0 mi NW 5.8 mph - N/A   Mostly Cloudy
4:13 PM 51.8 °F - 42.8 °F 71% 30.24 in 10.0 mi NW 6.9 mph - N/A   Light Drizzle
4:38 PM 50.0 °F - 44.6 °F 82% 30.26 in 6.0 mi North 8.1 mph - N/A Rain Light Rain
4:53 PM 48.2 °F - 44.6 °F 87% 30.26 in 7.0 mi North 10.4 mph - N/A Rain Light Rain
4:58 PM 48.6 °F - 44.2 °F 85% 30.28 in 8.0 mi North 9.2 mph - 0.03 in Rain Light Rain
5:08 PM 48.2 °F - 42.8 °F 82% 30.26 in 10.0 mi North 10.4 mph - N/A   Light Drizzle
5:18 PM 48.2 °F - 42.8 °F 82% 30.27 in 10.0 mi North 9.2 mph - N/A   Light Drizzle
5:19 PM 48.2 °F - 42.8 °F 82% 30.27 in 10.0 mi North 9.2 mph - N/A   Overcast
5:22 PM 48.2 °F - 42.8 °F 82% 30.27 in 10.0 mi North 8.1 mph - N/A   Light Drizzle
5:42 PM 46.4 °F 44.3 °F 42.8 °F 87% 30.27 in 10.0 mi North 4.6 mph - N/A Rain Light Rain
5:58 PM 47.3 °F - 42.4 °F 83% 30.29 in 5.0 mi East 3.5 mph - N/A Rain Light Rain
6:17 PM 48.2 °F - 42.8 °F 82% 30.27 in 10.0 mi SE 3.5 mph - N/A   Mostly Cloudy
6:58 PM 47.7 °F - 44.1 °F 87% 30.29 in 10.0 mi East 3.5 mph - 0.01 in   Mostly Cloudy
7:58 PM 46.6 °F - 44.6 °F 93% 30.31 in 10.0 mi SE 4.6 mph - N/A   Overcast
9:58 PM 44.6 °F - 43.5 °F 96% 30.35 in 10.0 mi NE 1.2 mph - N/A   Partly Cloudy
10:41 PM 42.8 °F - 42.8 °F 100% 30.35 in 1.2 mi WNW 1.2 mph - N/A   Clear
10:52 PM 42.8 °F - 42.8 °F 100% 30.35 in 1.8 mi WNW 2.3 mph - N/A   Clear
10:58 PM 42.6 °F 39.0 °F 42.3 °F 99% 30.36 in 2.5 mi NNW 5.8 mph - N/A   Clear
11:03 PM 41.0 °F 37.1 °F 41.0 °F 100% 30.35 in 6.0 mi NNW 5.8 mph - N/A   Clear
11:33 PM 41.0 °F - 39.2 °F 93% 30.35 in 2.5 mi SE 1.2 mph - N/A   Clear
11:38 PM 39.2 °F - 39.2 °F 100% 30.36 in 0.8 mi SE 2.3 mph - N/A   Clear
11:43 PM 39.2 °F 35.9 °F 37.4 °F 93% 30.36 in 0.5 mi SE 4.6 mph - N/A Fog Fog
11:48 PM 39.2 °F 37.0 °F 37.4 °F 93% 30.36 in 0.8 mi SE 3.5 mph - N/A   Partly Cloudy
11:53 PM 39.2 °F - 39.2 °F 100% 30.36 in 1.8 mi ESE 2.3 mph - N/A   Partly Cloudy
11:58 PM 39.2 °F - 39.0 °F 99% 30.38 in 2.5 mi SE 2.3 mph - N/A   Partly Cloudy